UAL1812 KDEN-KSFO

Flight info

Callsign UAL1812
Flight time N/A
Altitude 34000
Route COORZ7 VOAXA Q136 OAL INYOE DYAMD5
Aircraft A21N/M-SDE3FGHIRWY/LB1

Departure

Time 2026-05-07 20:12
Airport Denver International Airport (KDEN)

Arrival

Time N/A
Airport San Francisco International Airport (KSFO)
Time Latitude Longitude Altitude Speed Heading
2026-05-07 19:47 39.85933 -104.67557 5381 ft 0 kts 180°
2026-05-07 20:01 39.85945 -104.67556 5381 ft 2 kts 179°
2026-05-07 20:01 39.85960 -104.67557 5381 ft 2 kts 179°
2026-05-07 20:01 39.85975 -104.67556 5381 ft 2 kts 179°
2026-05-07 20:01 39.85990 -104.67557 5381 ft 2 kts 179°
2026-05-07 20:02 39.86005 -104.67556 5381 ft 2 kts 179°
2026-05-07 20:02 39.86012 -104.67556 5381 ft 0 kts 179°
2026-05-07 20:05 39.86009 -104.67558 5381 ft 1 kts 213°
2026-05-07 20:05 39.86001 -104.67596 5381 ft 7 kts 266°
2026-05-07 20:05 39.86008 -104.67688 5381 ft 12 kts 277°
2026-05-07 20:05 39.86016 -104.67824 5381 ft 17 kts 270°
2026-05-07 20:06 39.86017 -104.67999 5380 ft 21 kts 270°
2026-05-07 20:06 39.86022 -104.68197 5379 ft 25 kts 274°
2026-05-07 20:06 39.86033 -104.68419 5375 ft 23 kts 270°
2026-05-07 20:06 39.85999 -104.68510 5375 ft 11 kts 192°
2026-05-07 20:07 39.85903 -104.68513 5375 ft 15 kts 179°
2026-05-07 20:07 39.85781 -104.68513 5375 ft 18 kts 180°
2026-05-07 20:07 39.85654 -104.68514 5375 ft 18 kts 180°
2026-05-07 20:07 39.85529 -104.68515 5375 ft 17 kts 180°
2026-05-07 20:08 39.85405 -104.68515 5375 ft 17 kts 180°
2026-05-07 20:08 39.85284 -104.68517 5375 ft 15 kts 180°
2026-05-07 20:08 39.85220 -104.68536 5375 ft 9 kts 230°
2026-05-07 20:08 39.85204 -104.68641 5372 ft 15 kts 268°
2026-05-07 20:09 39.85200 -104.68805 5362 ft 21 kts 269°
2026-05-07 20:09 39.85199 -104.69008 5356 ft 22 kts 269°
2026-05-07 20:09 39.85196 -104.69224 5343 ft 26 kts 271°
2026-05-07 20:10 39.85209 -104.69626 5341 ft 8 kts 300°
2026-05-07 20:10 39.85256 -104.69662 5340 ft 4 kts 351°
2026-05-07 20:10 39.85273 -104.69661 5341 ft 0 kts
2026-05-07 20:10 39.85298 -104.69659 5341 ft 19 kts
2026-05-07 20:11 39.85695 -104.69653 5337 ft 92 kts 360°
2026-05-07 20:11 39.86559 -104.69638 5334 ft 152 kts
2026-05-07 20:11 39.87789 -104.69618 5395 ft 195 kts 353°
2026-05-07 20:11 39.89142 -104.69536 6007 ft 194 kts 356°
2026-05-07 20:12 39.90454 -104.69656 6630 ft 190 kts 333°
2026-05-07 20:12 39.91358 -104.70772 7176 ft 185 kts 288°
2026-05-07 20:12 39.91394 -104.72464 7581 ft 196 kts 257°
2026-05-07 20:12 39.90970 -104.74207 7825 ft 208 kts 255°
2026-05-07 20:13 39.90536 -104.76074 8067 ft 221 kts 255°
2026-05-07 20:13 39.90081 -104.78043 8246 ft 237 kts 255°
2026-05-07 20:13 39.89584 -104.80169 8496 ft 252 kts 255°
2026-05-07 20:13 39.89058 -104.82413 8765 ft 267 kts 255°